Hourly Data Report for January 27, 2017

PORT ALBERNI (AUT)
BRITISH COLUMBIA

49°18'59.700" N
124°55'36.600" W
76.20 m
1036B06
71475
WQC

Download Data

Hourly Data (January 2017)
Hourly Data Report for January 27, 2017
TIME
LST
Temp Definition
°C
Dew Point Definition
°C
Rel Hum Definition
%
Precip. Amount Definition
mm

Wind Dir Definition
10's deg

Wind Spd Definition
km/h
Visibility Definition
km
Stn Press Definition
kPa
Hmdx Definition


Wind Chill Definition


Weather Definition


00:00 2.8 2.5 98 0.0 32 3   102.54     LegendNANA
01:00 2.8 2.5 98 0.0 0 1   102.54     LegendNANA
02:00 2.9 2.6 98 0.0 32 3   102.58     LegendNANA
03:00 2.8 2.6 98 0.1 0 1   102.63     LegendNANA
04:00 2.8 2.6 98 0.2   0   102.61     LegendNANA
05:00 2.7 2.4 98 0.0 28 1   102.58     LegendNANA
06:00 2.7 2.5 98 0.0 25 1   102.65     LegendNANA
07:00 2.8 2.5 98 0.0 1 2   102.67     LegendNANA
08:00 2.7 2.5 98 0.0 35 3   102.74     LegendNANA
09:00 2.8 2.5 98 0.0 10 2   102.77     LegendNANA
10:00 3.5 3.2 98 0.3 5 1   102.76     LegendNANA
11:00 4.5 3.9 96 0.0 1 3   102.77     LegendNANA
12:00 5.2 4.4 95 0.0 27 2   102.76     LegendNANA
13:00 5.1 4.3 95 0.0 22 3   102.69     LegendNANA
14:00 5.0 4.3 95 0.0 27 5   102.63     LegendNANA
15:00 5.0 4.3 96 0.0 32 4   102.64     LegendNANA
16:00 4.6 3.9 95 0.0 20 3   102.66     LegendNANA
17:00 4.5 3.9 95 0.0 32 1   102.68     LegendNANA
18:00 3.9 3.5 97 0.0 20 2   102.65     LegendNANA
19:00 3.7 3.3 98 0.0 19 2   102.61     LegendNANA
20:00 3.0 2.7 98 0.0 27 3   102.63     LegendNANA
21:00 2.6 2.3 98 0.0 23 2   102.59     LegendNANA
22:00 3.3 3.1 98 0.0 30 6   102.62     LegendNANA
23:00 3.2 2.9 99 0.0 0 1   102.62     LegendNANA

Notes on Data Quality.

Legend

  • E = Estimated
  • M = Missing
  • NA = Not Available*
  • [empty] = Indicates an unobserved value
Date modified: